Regional Weather Roundup
Issued by NWS Lake Charles, LA

Home | Current Version | Previous Version | Text Only | Print | Product List | Glossary On
Versions: 1 2 3 4 5 6 7 8 9 10 11 12 13 14 15 16 17 18 19 20 21 22 23 24 25 26 27 28
000
ASUS44 KLCH 221110
RWRLCH
REGIONAL WEATHER ROUNDUP
NATIONAL WEATHER SERVICE LAKE CHARLES LA
600 AM CDT SUN OCT 22 2017

Note: "fair" indicates few or no clouds below 12,000 feet with no
significant weather and/or obstructions to visibility.


ACROSS SOUTHEAST TEXAS

CITY           SKY/WX    TMP DP  RH WIND       PRES   REMARKS
BEAUMONT       MOCLDY    73  73 100 CALM      29.99R
BEAUMONT CITY  RAIN      76  74  94 S5        30.00R
ORANGE         LGT RAIN  76  76 100 CALM      30.01R
JASPER         MOCLDY    75  73  94 CALM      30.03R FOG
$$

ACROSS CENTRAL LOUISIANA

CITY           SKY/WX    TMP DP  RH WIND       PRES   REMARKS
LEESVILLE      CLOUDY    70  68  93 E5        30.02S
FULLERTON      CLOUDY    71  69  93 CALM      30.01R
ALEXANDRIA INT CLOUDY    69  66  90 CALM      30.01R
ESLER FIELD    CLOUDY    68  67  96 SW5       30.02R
DERIDDER       CLOUDY    72  70  95 SE5       30.04S
OAKDALE        PTSUNNY   67  66  94 CALM      30.02R
OPELOUSAS        N/A     68  68  99 CALM      30.01S
$$

ACROSS SOUTHWEST AND SOUTH CENTRAL LOUISIANA

CITY           SKY/WX    TMP DP  RH WIND       PRES   REMARKS
SULPHUR        CLOUDY    74  74  97 E6        30.01R
LAKE CHARLES   MOCLDY    74  72  93 E5        30.00R
CHENNAULT INT  CLEAR     73  72  94 E5        30.01R
CAMERON PHI    PTSUNNY   77  75  94 E5        29.99R
DEQUINCY       CLOUDY    72  71  95 CALM      30.01S
JENNINGS       FAIR      71  69  93 E6        30.01R
LAFAYETTE      MOCLDY    72  71  97 SE6       30.01S
NEW IBERIA     CLOUDY    73  69  87 SE12      30.03R
ABBEVILLE      NOT AVBL
PATTERSON      CLOUDY    74  72  93 E8        30.03R
SALT POINT       N/A     76  74  93 SE7       29.99R
$$

SELECTED SITES ACROSS THE REGION

CITY           SKY/WX    TMP DP  RH WIND       PRES   REMARKS
HOUSTON BUSH   PTCLDY    73  73 100 CALM      29.98R
HOUSTON HOBBY  PTCLDY    74  71  91 CALM      29.97S
GALVESTON      CLEAR     78  77  96 SW3       29.99R
COLLEGE STAT   CLOUDY    76  75  97 S5        29.98R
CONROE         CLOUDY    73  73 100 SE3       29.98S FOG
HUNTSVILLE     CLOUDY    76  72  87 CALM      30.00R
LUFKIN         HVY RAIN  61  59  93 N21G28    30.05R FOG
SHREVEPORT     LGT RAIN  62  61  96 N13       30.07F
MONROE         LGT RAIN  72  69  90 W6        30.01R
NATCHEZ MS     NOT AVBL
BATON ROUGE    LGT RAIN  74  73  97 E7        30.01S
N.O. INTL ARPT TSTM      76  75  97 E7        30.02R
SLIDELL        CLOUDY    75  72  90 NE5       30.03S
$$

MARINE REPORTS

STATION/POSITION TIME  SKY/WX   TEMP    WIND        PRES    VSBY
                                AIR SEA DIR/SP/G
                 (UTC)          (F)     (DEG/KT/KT) (MB)    (MI)
BUOY 30 S HIGH I 0950            80 80  190/ 10/ 12 1014.2
WVE H/P(F/S)=  3/ 8

SEA RIM ST PARK  1100            77     100/  1/  2 1015.9R
PORT ARTHUR      1042            75 76   20/  1/  2 1015.7R
SABINE PASS N    1042            77 78  140/  1/  2 1016.9R
TEXAS POINT      NOT AVBL
CALCASIEU PASS   1042            76 77  130/  7/  9 1014.4R
LK CHARLES BEACH 1042            74 79              1015.4R
MARSH ISLAND     1000            77                   N/A
FRESH WATER LOCK 1042            75 76  130/  4/  5 1015.7R
AMERADA PASS     1048            74 78   80/  6/  8 1016.1R
$$




USA.gov is the U.S. government's official web portal to all federal, state and local government web resources and services.